EW8226 Weather Reports


Display with metric or nautical units.
time (UTC)temp
F
wind
direction
speed
MPH
gust
MPH
rain 1hr
in
rain 24hr
in
rain mn
in
humidity
%
barometer
mb
20260510031617 58 55 0.0 0.0 0.00 0.00 0.00 65 1010.6
20260510030017 58 13 0.0 0.0 0.00 0.00 0.00 64 1010.6
20260510024516 59 20 0.0 0.0 0.00 0.00 0.00 64 1010.8
20260510023014 59 36 0.0 0.0 0.00 0.00 0.00 64 1010.9
20260510021614 59 69 0.0 2.0 0.00 0.00 0.00 64 1010.7
20260510020014 59 89 0.0 1.0 0.00 0.00 0.00 64 1010.7
20260510014512 59 82 0.0 1.0 0.00 0.00 0.00 64 1010.8
20260510013021 60 44 0.0 1.0 0.00 0.00 0.00 63 1010.9
20260510011611 60 80 0.0 1.0 0.00 0.00 0.00 63 1010.9
20260510010009 60 71 0.0 1.0 0.00 0.00 0.00 62 1010.9
20260510004508 61 22 0.0 0.0 0.00 0.00 0.00 62 1011.0
20260510003006 61 52 0.0 1.0 0.00 0.00 0.00 61 1011.2
20260510001605 61 57 0.0 1.0 0.00 0.00 0.00 61 1011.4
20260510000008 62 57 0.0 1.0 0.00 0.00 0.00 61 1011.6
20260509234507 62 96 0.0 0.0 0.00 0.00 0.00 61 1011.7
20260509233005 62 90 0.0 0.0 0.00 0.00 0.00 61 1011.8
20260509231604 62 98 0.0 1.0 0.00 0.00 0.00 61 1012.0
20260509230008 63 93 0.0 1.0 0.00 0.00 0.00 61 1012.0
20260509224503 63 355 0.0 4.0 0.00 0.00 0.00 60 1011.8
20260509223103 64 48 0.0 0.0 0.00 0.00 0.00 59 1011.7
20260509221559 64 90 0.0 2.0 0.00 0.00 0.00 60 1011.7
20260509220056 64 96 0.0 0.0 0.00 0.00 0.00 60 1011.7
20260509214619 65 87 0.0 1.0 0.00 0.00 0.00 60 1011.8
20260509213052 65 79 0.0 0.0 0.00 0.00 0.00 60 1012.0
20260509211552 65 48 0.0 0.0 0.00 0.00 0.00 60 1012.0
20260509210055 66 102 0.0 1.0 0.00 0.00 0.00 60 1011.9
20260509204550 66 42 0.0 1.0 0.00 0.00 0.00 60 1011.8
20260509203059 66 41 0.0 0.0 0.00 0.00 0.00 59 1011.9
20260509201545 67 23 0.0 0.0 0.00 0.00 0.00 58 1011.8
20260509200044 67 126 0.0 1.0 0.00 0.00 0.00 57 1011.6
20260509194547 68 72 0.0 0.0 0.00 0.00 0.00 57 1011.4
20260509193041 68 47 0.0 0.0 0.00 0.00 0.00 57 1011.3
20260509191553 69 68 0.0 1.0 0.00 0.00 0.00 56 1011.1
20260509190037 69 5 0.0 0.0 0.00 0.00 0.00 56 1011.1
20260509184545 70 48 0.0 0.0 0.00 0.00 0.00 55 1011.1
20260509183046 70 26 0.0 1.0 0.00 0.00 0.00 54 1011.1
20260509181531 71 35 0.0 1.0 0.00 0.00 0.00 53 1010.9
20260509180030 71 74 0.0 1.0 0.00 0.00 0.00 53 1010.9
20260509174630 72 80 0.0 0.0 0.00 0.00 0.00 52 1010.9
20260509173027 72 59 0.0 1.0 0.00 0.00 0.00 51 1010.8
20260509171526 73 45 0.0 1.0 0.00 0.00 0.00 50 1010.8
20260509170026 73 53 0.0 0.0 0.00 0.00 0.00 49 1010.9
20260509164525 73 20 0.0 1.0 0.00 0.00 0.00 50 1010.9
20260509163033 72 96 0.0 4.0 0.00 0.00 0.00 51 1010.9
20260509161523 72 68 0.0 0.0 0.00 0.00 0.00 51 1011.0
20260509160029 73 59 0.0 0.0 0.00 0.00 0.00 50 1011.1
20260509154528 73 27 0.0 0.0 0.00 0.00 0.00 49 1011.2
20260509153039 73 104 0.0 0.0 0.00 0.00 0.00 49 1011.3
20260509151526 73 88 0.0 1.0 0.00 0.00 0.00 48 1011.3
20260509150017 74 57 0.0 0.0 0.00 0.00 0.00 47 1011.5
20260509144519 74 35 0.0 0.0 0.00 0.00 0.00 48 1011.7
20260509143013 73 28 0.0 0.0 0.00 0.00 0.00 49 1011.6
20260509141511 74 41 0.0 0.0 0.00 0.00 0.00 47 1011.6
20260509140014 74 78 0.0 0.0 0.00 0.00 0.00 46 1011.5
20260509134510 74 312 0.0 0.0 0.00 0.00 0.00 48 1011.6
20260509133010 74 172 0.0 2.0 0.00 0.00 0.00 47 1011.7
20260509131510 73 63 0.0 0.0 0.00 0.00 0.00 48 1012.0
20260509130020 74 58 0.0 0.0 0.00 0.00 0.00 47 1012.0
20260509124508 73 65 0.0 0.0 0.00 0.00 0.00 49 1012.1
20260509123004 72 81 0.0 1.0 0.00 0.00 0.00 49 1012.3
20260509121508 73 118 0.0 0.0 0.00 0.00 0.00 48 1012.4
20260509120101 73 63 0.0 0.0 0.00 0.00 0.00 49 1012.4
20260509120001 73 66 0.0 0.0 0.00 0.00 0.00 50 1012.4
20260509114603 72 92 0.0 1.0 0.00 0.00 0.00 52 1012.6
20260509113100 72 71 0.0 1.0 0.00 0.00 0.00 52 1012.7
20260509111553 71 67 0.0 1.0 0.00 0.00 0.00 53 1013.0
20260509110052 70 77 0.0 0.0 0.00 0.00 0.00 55 1013.2
20260509104551 69 90 0.0 0.0 0.00 0.00 0.00 58 1013.5
20260509103059 69 66 0.0 0.0 0.00 0.00 0.00 57 1013.7
20260509101600 69 31 0.0 1.0 0.00 0.00 0.00 57 1013.8
20260509100047 68 101 0.0 0.0 0.00 0.00 0.00 58 1013.9
20260509094556 67 63 0.0 2.0 0.00 0.00 0.00 60 1013.9
20260509093049 65 14 0.0 0.0 0.00 0.00 0.00 61 1014.0
20260509091548 65 54 0.0 0.0 0.00 0.00 0.00 62 1014.1
20260509090146 64 13 0.0 1.0 0.00 0.00 0.00 63 1014.2
20260509084548 63 360 0.0 0.0 0.00 0.00 0.00 64 1014.2
20260509083054 63 38 0.0 0.0 0.00 0.00 0.00 64 1014.2
20260509081544 62 55 0.0 0.0 0.00 0.00 0.00 65 1014.3
20260509080047 62 5 0.0 0.0 0.00 0.00 0.00 65 1014.3
20260509074550 61 77 0.0 0.0 0.00 0.00 0.00 67 1014.3
20260509073043 60 5 0.0 0.0 0.00 0.00 0.00 68 1014.3
20260509071546 58 41 0.0 0.0 0.00 0.00 0.00 72 1014.5
20260509070044 57 97 0.0 0.0 0.00 0.00 0.00 72 1014.5
20260509064543 56 100 0.0 0.0 0.00 0.00 0.00 75 1014.7
20260509063042 55 100 0.0 0.0 0.00 0.00 0.00 76 1014.7
20260509061544 53 51 0.0 0.0 0.00 0.00 0.00 79 1014.7
20260509060054 53 51 0.0 0.0 0.00 0.00 0.00 79 1014.8
20260509054545 52 51 0.0 0.0 0.00 0.00 0.00 80 1014.8
20260509053104 51 51 0.0 0.0 0.00 0.00 0.00 84 1014.6
20260509051547 49 51 0.0 0.0 0.00 0.00 0.00 85 1014.6
20260509050041 49 51 0.0 1.0 0.00 0.00 0.00 84 1014.4
20260509044604 49 49 0.0 0.0 0.00 0.00 0.00 85 1014.3
20260509043053 49 49 0.0 0.0 0.00 0.00 0.00 85 1014.3
20260509041539 49 49 0.0 0.0 0.00 0.00 0.00 85 1014.4
20260509040043 49 49 0.0 0.0 0.00 0.00 0.00 85 1014.3
20260509034541 49 48 0.0 0.0 0.00 0.00 0.00 84 1014.3
20260509033037 49 63 0.0 0.0 0.00 0.00 0.00 84 1014.5